Weather History for Clinton, OK

Change the Weather History Date:

Wednesday, October 8, 2014

  Actual Average (KCSM) Record (KCSM)
Temperature  
Mean Temperature 74 °F -  
Max Temperature 87 °F 73 °F 91 °F (2014)
Min Temperature 62 °F 51 °F 34 °F (2012)
Cooling Degree Days 10    
Growing Degree Days 24 (Base 50)    
Moisture  
Dew Point 53 °F    
Average Humidity 50    
Maximum Humidity 83    
Minimum Humidity 24    
Precipitation  
Precipitation 0.00 in - - ()
Sea Level Pressure  
Sea Level Pressure 29.94 in    
Wind  
Wind Speed 10 mph (SE)    
Max Wind Speed 24 mph    
Max Gust Speed 28 mph    
Visibility 10 miles    
Events      
Averages and records for this station are not official NWS values.
T = Trace of Precipitation, MM = Missing Value Source: NWS Daily Summary

Daily Weather History Graph

Daily Weather History Graph

Search for Another Location

Airport:

Trip Planner

Search our weather history database for the weather conditions in past years. The results will help you decide how hot, cold, wet, or windy it might be!

Date:

Astronomy

Oct. 08, 2014 Rise Set
Actual Time 7:36 AM CDT 7:09 PM CDT
Civil Twilight 7:10 AM CDT 7:35 PM CDT
Nautical Twilight 6:41 AM CDT 8:04 PM CDT
Astronomical Twilight 6:11 AM CDT 8:34 PM CDT
Moon 7:27 PM CDT (10/8) 7:43 AM CDT (10/8)
Length of Visible Light 12h 24m
Length of Day
11h 33m
Full, 100% of the Moon is Illuminated
Oct 8
Full
Oct 15
Last Quarter
Oct 23
New
Oct 30
First Quarter
Nov 6
Full

Hourly Weather History & Observations

Time (CDT) Temp. Heat Index Dew Point Humidity Pressure Visibility Wind Dir Wind Speed Gust Speed Precip Events Conditions
12:15 AM 69.8 °F - 53.6 °F 56% 29.93 in 10.0 mi ENE 8.1 mph - N/A   Clear
12:35 AM 71.6 °F - 55.4 °F 57% 29.93 in 10.0 mi NE 8.1 mph - N/A   Scattered Clouds
12:55 AM 69.8 °F - 55.4 °F 60% 29.93 in 10.0 mi NE 6.9 mph - N/A   Scattered Clouds
1:15 AM 68.0 °F - 55.4 °F 64% 29.93 in 10.0 mi ENE 8.1 mph - N/A   Clear
1:35 AM 68.0 °F - 55.4 °F 64% 29.93 in 10.0 mi ENE 6.9 mph - N/A   Clear
1:55 AM 68.0 °F - 57.2 °F 68% 29.93 in 10.0 mi ENE 10.4 mph - N/A   Scattered Clouds
2:15 AM 66.2 °F - 57.2 °F 73% 29.93 in 10.0 mi ENE 6.9 mph - N/A   Scattered Clouds
2:35 AM 66.2 °F - 57.2 °F 73% 29.94 in 10.0 mi East 6.9 mph - N/A   Clear
2:55 AM 68.0 °F - 59.0 °F 73% 29.94 in 10.0 mi East 10.4 mph - N/A   Scattered Clouds
3:15 AM 66.2 °F - 59.0 °F 78% 29.94 in 10.0 mi ENE 9.2 mph - N/A   Scattered Clouds
3:35 AM 66.2 °F - 59.0 °F 78% 29.94 in 10.0 mi ENE 9.2 mph - N/A   Scattered Clouds
3:55 AM 64.4 °F - 59.0 °F 83% 29.93 in 10.0 mi ENE 6.9 mph - N/A   Scattered Clouds
4:15 AM 64.4 °F - 59.0 °F 83% 29.93 in 10.0 mi ENE 9.2 mph - N/A   Scattered Clouds
4:35 AM 64.4 °F - 59.0 °F 83% 29.93 in 10.0 mi ENE 8.1 mph - N/A   Scattered Clouds
4:55 AM 64.4 °F - 59.0 °F 83% 29.93 in 10.0 mi East 8.1 mph - N/A   Scattered Clouds
5:15 AM 64.4 °F - 57.2 °F 77% 29.93 in 10.0 mi East 8.1 mph - N/A   Scattered Clouds
5:35 AM 64.4 °F - 55.4 °F 73% 29.93 in 10.0 mi East 6.9 mph - N/A   Mostly Cloudy
5:55 AM 62.6 °F - 55.4 °F 77% 29.93 in 10.0 mi East 9.2 mph - N/A   Scattered Clouds
6:15 AM 62.6 °F - 55.4 °F 77% 29.94 in 10.0 mi East 8.1 mph - N/A   Scattered Clouds
6:55 AM 62.6 °F - 55.4 °F 77% 29.95 in 10.0 mi East 5.8 mph - N/A   Scattered Clouds
7:15 AM 64.4 °F - 53.6 °F 68% 29.95 in 10.0 mi ESE 6.9 mph - N/A   Scattered Clouds
7:35 AM 64.4 °F - 51.8 °F 64% 29.95 in 10.0 mi ESE 5.8 mph - N/A   Clear
7:55 AM 64.4 °F - 51.8 °F 64% 29.96 in 10.0 mi SE 6.9 mph - N/A   Clear
8:15 AM 66.2 °F - 51.8 °F 60% 29.96 in 10.0 mi SE 6.9 mph - N/A   Clear
8:35 AM 68.0 °F - 51.8 °F 56% 29.96 in 10.0 mi SSE 6.9 mph - N/A   Clear
8:55 AM 68.0 °F - 51.8 °F 56% 29.97 in 10.0 mi SSE 6.9 mph - N/A   Clear
9:15 AM 69.8 °F - 51.8 °F 53% 29.98 in 10.0 mi SSE 6.9 mph - N/A   Clear
9:35 AM 71.6 °F - 50.0 °F 46% 29.99 in 10.0 mi SSE 8.1 mph - N/A   Clear
9:55 AM 73.4 °F - 50.0 °F 44% 29.98 in 10.0 mi South 10.4 mph - N/A   Clear
10:15 AM 77.0 °F - 51.8 °F 41% 29.98 in 10.0 mi South 11.5 mph - N/A   Clear
10:35 AM 80.6 °F - 51.8 °F 37% 29.99 in 10.0 mi South 15.0 mph - N/A   Clear
10:55 AM 80.6 °F - 51.8 °F 37% 29.99 in 10.0 mi South 15.0 mph - N/A   Clear
11:15 AM 80.6 °F - 51.8 °F 37% 29.99 in 10.0 mi SSW 11.5 mph - N/A   Clear
11:35 AM 84.2 °F - 51.8 °F 33% 29.99 in 10.0 mi SSW 12.7 mph - N/A   Clear
11:55 AM 82.4 °F 81.4 °F 53.6 °F 37% 29.99 in 10.0 mi SW 11.5 mph - N/A   Clear
12:15 PM 86.0 °F - 51.8 °F 31% 29.99 in 10.0 mi SSW 16.1 mph 20.7 mph N/A   Clear
12:35 PM 86.0 °F - 51.8 °F 31% 29.99 in 10.0 mi SSW 12.7 mph - N/A   Clear
12:55 PM 86.0 °F - 51.8 °F 31% 29.98 in 10.0 mi South 13.8 mph - N/A   Clear
1:15 PM 86.0 °F - 50.0 °F 29% 29.97 in 10.0 mi South 11.5 mph - N/A   Clear
1:55 PM 87.8 °F - 46.4 °F 24% 29.96 in 10.0 mi South 16.1 mph 20.7 mph N/A   Clear
2:15 PM 87.8 °F - 48.2 °F 25% 29.95 in 10.0 mi South 12.7 mph 19.6 mph N/A   Clear
2:35 PM 87.8 °F - 48.2 °F 25% 29.94 in 10.0 mi South 15.0 mph 20.7 mph N/A   Clear
2:55 PM 87.8 °F - 48.2 °F 25% 29.93 in 10.0 mi South 13.8 mph 19.6 mph N/A   Clear
3:15 PM 87.8 °F - 48.2 °F 25% 29.93 in 10.0 mi South 16.1 mph 23.0 mph N/A   Clear
3:35 PM 87.8 °F - 48.2 °F 25% 29.93 in 10.0 mi South 12.7 mph - N/A   Clear
3:55 PM 87.8 °F - 46.4 °F 24% 29.92 in 10.0 mi South 13.8 mph - N/A   Clear
4:15 PM 87.8 °F - 46.4 °F 24% 29.92 in 10.0 mi South 16.1 mph 19.6 mph N/A   Clear
4:35 PM 87.8 °F - 46.4 °F 24% 29.91 in 10.0 mi South 17.3 mph - N/A   Clear
4:55 PM 87.8 °F - 46.4 °F 24% 29.91 in 10.0 mi South 16.1 mph 21.9 mph N/A   Clear
5:15 PM 86.0 °F - 48.2 °F 27% 29.91 in 10.0 mi SSE 17.3 mph - N/A   Clear
5:35 PM 87.8 °F - 50.0 °F 27% 29.90 in 10.0 mi SSE 24.2 mph 27.6 mph N/A   Clear
5:55 PM 86.0 °F - 50.0 °F 29% 29.90 in 10.0 mi SSE 17.3 mph - N/A   Clear
6:15 PM 86.0 °F - 51.8 °F 31% 29.91 in 10.0 mi SSE 18.4 mph 25.3 mph N/A   Clear
6:35 PM 84.2 °F - 48.2 °F 29% 29.91 in 10.0 mi SSE 16.1 mph - N/A   Clear
6:55 PM 82.4 °F - 50.0 °F 32% 29.91 in 10.0 mi SSE 15.0 mph 20.7 mph N/A   Clear
7:15 PM 82.4 °F - 46.4 °F 28% 29.92 in 10.0 mi SSE 12.7 mph - N/A   Clear
7:35 PM 80.6 °F - 46.4 °F 30% 29.91 in 10.0 mi SSE 10.4 mph - N/A   Clear
7:55 PM 78.8 °F - 50.0 °F 36% 29.92 in 10.0 mi SSE 9.2 mph - N/A   Clear
8:15 PM 77.0 °F - 50.0 °F 39% 29.92 in 10.0 mi SSE 8.1 mph - N/A   Scattered Clouds
8:35 PM 75.2 °F - 51.8 °F 44% 29.92 in 10.0 mi SE 8.1 mph - N/A   Clear
8:55 PM 75.2 °F - 51.8 °F 44% 29.93 in 10.0 mi SE 11.5 mph - N/A   Clear
9:15 PM 77.0 °F - 53.6 °F 44% 29.93 in 10.0 mi SE 11.5 mph - N/A   Clear
9:35 PM 77.0 °F - 59.0 °F 54% 29.94 in 10.0 mi SE 12.7 mph - N/A   Scattered Clouds
9:55 PM 75.2 °F - 59.0 °F 57% 29.94 in 10.0 mi SE 12.7 mph - N/A   Clear
10:15 PM 75.2 °F - 60.8 °F 61% 29.94 in 10.0 mi SSE 16.1 mph 19.6 mph N/A   Clear
10:35 PM 73.4 °F - 59.0 °F 61% 29.94 in 10.0 mi SSE 17.3 mph 24.2 mph N/A   Clear
10:55 PM 73.4 °F - 59.0 °F 61% 29.94 in 10.0 mi SSE 15.0 mph - N/A   Clear
11:15 PM 73.4 °F - 60.8 °F 65% 29.94 in 10.0 mi SE 15.0 mph 23.0 mph N/A   Clear
11:35 PM 73.4 °F - 60.8 °F 65% 29.93 in 10.0 mi SSE 17.3 mph 21.9 mph N/A   Clear
11:55 PM 71.6 °F - 60.8 °F 69% 29.93 in 10.0 mi SSE 13.8 mph 20.7 mph N/A   Clear